Location: Newark
(44.3681°N, 100.3364°W)
Time: 08:55:49
(UTC+00:00)

S-56A Canister/Altair - Pass Details

Date: 01 March 2020
Orbit: 634 x 2498 km, 38.9° (Epoch: 08 April)

Event Time Altitude Azimuth Distance (km) Brightness Sun altitude
Rises 14:48:23 0° 224° (SW) 4,821 11.4 14.6°
Reaches altitude 10° 14:51:21 10° 218° (SW) 4,066 11.1 15.1°
Maximum altitude 15:02:06 48° 149° (SSE) 2,719 11.3 16.8°
Drops below altitude 10° 15:15:52 10° 83° (E) 5,152 12.7 18.9°
Sets 15:20:09 0° 78° (ENE) 6,178 12.8 19.6°
